Location: Cahas Mountain Overlook
(37.0833°N, 80.1000°W)
Time: 19:21:30
(UTC-05:00)

X-37B - Pass Details

Date: 27 November 2022
Orbit: 277 x 277 km, 45.0° (Epoch: 01 November)

Event Time Altitude Azimuth Distance (km) Brightness Sun altitude
Exits shadow 05:27:43 11° 167° (SSE) 1,033 3.0 -20.4°
Drops below altitude 10° 05:27:51 10° 165° (SSE) 1,075 3.1 -20.3°
Sets 05:30:02 0° 147° (SSE) 1,896 4.8 -19.9°
